Regional Weather Roundup
Issued by NWS Upton, NY

Current Version | Previous Version | Graphics & Text | Print | Product List | Glossary Off
Versions: 1 2 3 4 5 6 7 8 9 10 11 12 13 14 15 16 17 18 19 20 21 22 23 24 25 26 27 28

000
ASUS41 KOKX 232309
RWROKX

REGIONAL WEATHER ROUNDUP
NATIONAL WEATHER SERVICE NEW YORK NY
700 PM EDT SUN JUL 23 2017

NOTE: "FAIR" INDICATES FEW OR NO CLOUDS BELOW 12,000 FEET WITH NO
SIGNIFICANT WEATHER AND/OR OBSTRUCTIONS TO VISIBILITY.

NYZ071-072-176-178-NJZ106-104-240000-
NEW YORK CITY METRO AREA

CITY           SKY/WX    TMP DP  RH WIND       PRES   REMARKS
Central Park   MOSUNNY   76  66  71 VRB7      29.86S
Bronx Bot Gard   N/A     75  64  69 SE8       29.86R
LaGuardia APRT PTSUNNY   78  67  68 SE10      29.83R
Kennedy INTL   PTSUNNY   75  69  81 E14       29.85R
Breezy Point     N/A     73 N/A N/A E10G17      N/A
Newark/Liberty CLOUDY    76  67  73 SE7       29.83R
Teterboro      CLOUDY    78  67  68 SE9       29.81S
$$

NYZ177-179-078>081-240000-
LONG ISLAND NEW YORK

CITY           SKY/WX    TMP DP  RH WIND       PRES   REMARKS
Jones Beach      N/A     72 N/A N/A E10G17      N/A
Matinecock PT    N/A     73 N/A N/A SE3G9       N/A
Farmingdale    CLOUDY    74  66  76 SE13      29.85R
MacArthur/ISP  CLOUDY    74  66  76 E12       29.85S
Shirley        CLOUDY    73  66  78 E5        29.86S
Mt Sinai Harb    N/A    N/A N/A N/A SE5         N/A
Westhampton    MOSUNNY   71  62  73 E7        29.85S
East Hampton   CLOUDY    70  60  70 E9        29.88R
Montauk          N/A     70  61  73 E3        29.89R
$$

NYZ052-065-067-240000-
HUDSON VALLEY

CITY           SKY/WX    TMP DP  RH WIND       PRES   REMARKS
White Plains   PTSUNNY   73  64  73 E7        29.85S
Larchmont Harb   N/A     73 N/A N/A E8          N/A
Croton O-T Hud   N/A     75 N/A N/A E3          N/A
Newburgh       CLOUDY    75  72  88 E9        29.85R
Montgomery     CLOUDY    75  70  84 NE3       29.83R
Poughkeepsie   CLOUDY    74  67  78 SE7       29.82R
Albany         CLOUDY    76  64  66 NE5       29.82S
$$

NJZ001-105-106-008-010-013-015-019>022-104-240000-
NEW JERSEY

CITY           SKY/WX    TMP DP  RH WIND       PRES   REMARKS
Newark/Liberty CLOUDY    76  67  73 SE7       29.83R
Teterboro      CLOUDY    78  67  68 SE9       29.81S
Caldwell       CLOUDY    76  32  20 S9        29.83S
Somerville     CLOUDY    78  69  73 CALM      29.80R
Linden         CLOUDY    76  67  73 SE10G17   29.83S
Perth Amboy      N/A     73 N/A N/A E14G20      N/A
Sussex         CLOUDY    76  68  76 CALM      29.82S
Andover          N/A     76  69  79 CALM      29.83R
Trenton        CLOUDY    77  65  66 SE9       29.81R
Millville      CLOUDY    76  75  97 E8        29.80R
Atlantic City  CLOUDY    75  73  93 E7        29.81R
Wrightstown    PTSUNNY   75  67  76 SE9       29.80R
Toms River     PTSUNNY   77  68  73 SE8       29.83S
Belmar         PTSUNNY   75  67  76 SE9       29.85R
$$

PAZ047>061-062-071-240000-
EASTERN PENNSYLVANIA

CITY           SKY/WX    TMP DP  RH WIND       PRES   REMARKS
Philadelphia   LGT RAIN  78  71  79 SE13      29.79R
Allentown      PTSUNNY   81  66  60 E10       29.80R
Scranton       CLOUDY    78  68  71 VRB5      29.79S
$$

CTZ002-004>006-009-010-012-RIZ004-006-007-MAZ004-011-015-240000-
SOUTHERN NEW ENGLAND
 IN CT

CITY           SKY/WX    TMP DP  RH WIND       PRES   REMARKS
Bradley INTL   CLOUDY    78  60  53 SE10      29.85R
Hartford       MOSUNNY   78  60  53 S9        29.84R
Danbury        CLOUDY    72  63  73 SE9       29.87R
Wtrbury/Oxford CLOUDY    70  57  64 S9        29.87R
Bridgeport     CLOUDY    74  64  71 E13       29.85F
Meriden        CLOUDY    74  62  66 S12       29.86R
New Haven      CLOUDY    74  62  66 SE10      29.86S
Chester        FAIR      72  61  68 SE8       29.88R
Groton         CLOUDY    71  58  63 E14       29.87R
Wilimantic     MOSUNNY   77  56  48 SE6       29.87R

 IN RI

CITY           SKY/WX    TMP DP  RH WIND       PRES   REMARKS
Providence     PTSUNNY   72  53  51 E9        29.89R
Block Island   PTSUNNY   69  62  78 E7        29.90R
Westerly       CLOUDY    72  57  59 E8        29.89R
 IN MA

CITY           SKY/WX    TMP DP  RH WIND       PRES   REMARKS
Boston         CLOUDY    66  53  63 E10       29.91S
Worcester      CLOUDY    69  48  47 E7        29.91R
Westfield      CLOUDY    78  62  57 S3        29.85R
Provincetown   CLOUDY    67  56  67 E8        29.92R
Nantucket      MOSUNNY   67  58  72 NE14      29.89R
$$

ANZ330-335-338-340-345-350-353-355-240000-
COASTAL MARINE OBSERVATIONS


STATION/POSITION TIME  SKY/WX   TEMP    WIND        PRES    VSBY  WAVE
                                AIR SEA DIR/SP/G                  HT/PER
                 (UTC)          (F)     (DEG/KT/KT) (MB)    (MI)  (FT/S)
NY HARB ENTRANCE 2150            74 76   90/ 14/ 16 1009.6          3/ 8
20 S FIRE ISLAND 2150            75 77   90/ 12/ 14 1009.7          4/ 7
GREAT SOUTH BAY  2215            73 83   80/ 14/ 16   N/A
23 SSW MONTAUK P 2150            72 74              1011.0          5/ 7
15 E BARNEGAT LI 2230               77                N/A           4/ 8
HUDSON CANYON    2150            74 78   80/ 12/ 16 1009.2          4/ 7
KINGS POINT      2230            75 73  180/  7/ 10 1010.1
EXECUTION ROCKS  2245            75     130/  6/  8   N/A
CENTRAL LI SOUND 2200            73     100/ 14/ 17   N/A           2
EASTERN LI SOUND NOT AVBL
ROBBINS REEF     2230                   130/ 13/ 15 1010.6
$$


>>>>>>>>>>>>>>>>>>>>>>>>>>>> KEY <<<<<<<<<<<<<<<<<<<<<<<<<<<
>                                                          <
>     SKY/WX - Sky Condition/Present Weather               <
>     TMP    - Temperature in Fahrenheit                   <
>     DP     - Dew Point in Fahrenheit                     <
>     RH     - Relative Humidity in Percent                <
>     WIND   - Direction (from) and Speed in MPH           <
>     PRES   - Mean Sea Level Pressure (inches of Hg)      <
>     WCI    - Wind Chill Index                            <
>     VSB    - VISIBILITY IN MILES                         <
>     HX     - HEAT INDEX                                  <
>     TC     - TEMPERATURE IN CELSIUS                      <
>     VRB    - VARIABLE WIND DIRECTION                     <
>                                                          <
>>>>>>>>>>>>>>>>>>>>>>>>>>>> KEY <<<<<<<<<<<<<<<<<<<<<<<<<<<




USA.gov is the U.S. government's official web portal to all federal, state and local government web resources and services.